TimePDT,TemperatureF,Dew PointF,Humidity,Sea Level PressureIn,VisibilityMPH,Wind Direction,Wind SpeedMPH,Gust SpeedMPH,PrecipitationIn,Events,Conditions,WindDirDegrees,DateUTC
12:00 AM,64.9,48.7,56,29.86,-9999.0,NW,3.5,-,N/A,,Unknown,320,2012-10-02 07:00:00
1:00 AM,69.4,35.6,29,29.89,-9999.0,North,5.8,-,N/A,,Unknown,360,2012-10-02 08:00:00
2:00 AM,68.2,36.5,31,29.93,-9999.0,North,11.5,19.6,N/A,,Unknown,350,2012-10-02 09:00:00
3:00 AM,66.4,36.0,33,29.93,-9999.0,North,8.1,-,N/A,,Unknown,360,2012-10-02 10:00:00
4:00 AM,62.6,40.1,44,29.94,-9999.0,NW,3.5,-,N/A,,Unknown,320,2012-10-02 11:00:00
5:00 AM,55,43,54,29.96,,SE,1.2,,,,,130,2012-10-02 12:00:00
5:00 AM,54.7,43.0,65,29.96,-9999.0,SE,1.2,-,N/A,,Unknown,130,2012-10-02 12:00:00
6:00 AM,52.2,42.4,69,29.96,-9999.0,East,1.2,-,N/A,,Unknown,100,2012-10-02 13:00:00
7:00 AM,48.7,42.1,78,29.97,-9999.0,NE,2.3,-,N/A,,Unknown,50,2012-10-02 14:00:00
8:00 AM,52.5,42.6,69,29.99,-9999.0,NNE,4.6,-,N/A,,Unknown,30,2012-10-02 15:00:00
9:00 AM,59.0,42.6,55,29.99,-9999.0,ENE,2.3,-,N/A,,Unknown,70,2012-10-02 16:00:00
10:00 AM,63.0,35.8,36,30.01,-9999.0,North,11.5,19.6,N/A,,Unknown,350,2012-10-02 17:00:00
11:00 AM,60,31,22,30.06,,NNW,17.3,,,,,340,2012-10-02 18:00:00
11:00 AM,59.5,31.5,35,30.06,-9999.0,NNW,17.3,28.8,N/A,,Unknown,340,2012-10-02 18:00:00
12:00 PM,58.1,26.6,30,30.10,-9999.0,NNW,17.3,25.3,N/A,,Unknown,340,2012-10-02 19:00:00
1:00 PM,55.8,24.3,30,30.13,-9999.0,NNW,18.4,31.1,N/A,,Unknown,330,2012-10-02 20:00:00
2:00 PM,55.0,18.7,24,30.14,-9999.0,North,21.9,31.1,N/A,,Unknown,350,2012-10-02 21:00:00
3:00 PM,56.1,20.5,25,30.16,-9999.0,North,13.8,23.0,N/A,,Unknown,360,2012-10-02 22:00:00
4:00 PM,56.8,20.1,24,30.17,-9999.0,North,10.4,19.6,N/A,,Unknown,360,2012-10-02 23:00:00
5:00 PM,57,21,14,30.17,,North,12.7,,,,,350,2012-10-03 00:00:00
5:00 PM,57.2,20.8,24,30.17,-9999.0,North,12.7,26.5,N/A,,Unknown,350,2012-10-03 00:00:00
6:00 PM,54.5,20.1,26,30.20,-9999.0,North,17.3,33.4,N/A,,Unknown,360,2012-10-03 01:00:00
7:00 PM,53.2,22.6,30,30.22,-9999.0,North,15.0,29.9,N/A,,Unknown,360,2012-10-03 02:00:00
8:00 PM,52.5,23.5,32,30.24,-9999.0,North,12.7,19.6,N/A,,Unknown,350,2012-10-03 03:00:00
9:00 PM,52.3,24.8,34,30.23,-9999.0,North,17.3,26.5,N/A,,Unknown,350,2012-10-03 04:00:00
10:00 PM,52.2,25.5,36,30.26,-9999.0,North,16.1,25.3,N/A,,Unknown,350,2012-10-03 05:00:00
11:00 PM,52,28,26,30.29,,North,11.5,,,,,350,2012-10-03 06:00:00
11:00 PM,51.8,27.7,39,30.29,-9999.0,North,11.5,20.7,N/A,,Unknown,350,2012-10-03 06:00:00